Location: Boćki
(52.6512°N, 23.0459°E)
Time: 11:28:53
(UTC+01:00)

ISS - Pass Details

Date: 01 February 2019
Orbit: 403 x 411 km, 51.6° (Epoch: 16 February)

Event Time Altitude Azimuth Distance (km) Brightness Sun altitude
Rises 17:20:42 0° 263° (W) 2,333 2.1 -10.4°
Reaches altitude 10° 17:22:47 10° 262° (W) 1,474 0.6 -10.7°
Maximum altitude 17:26:05 75° 177° (S) 429 -3.7 -11.2°
Enters shadow 17:28:24 18° 93° (E) 1,081 -2.3 -11.5°
